Seattle Boeing, WA
on Sunday, November 11, 2012

Sunday
Previous Day Next Day
Daily Summary
 ActualAverage (KSEA)Record (KSEA)
Temperature
Mean Temperature °F 46°F  
Max Temperature 48°F 52°F 65°F (1990)
Min Temperature 32°F 41°F 15°F (1955)
Degree Days
Heating Degree Days 25 19  
Month to date heating degree days 192  
Since 1 July heating degree days 789  
Cooling Degree Days 0 0  
Month to date cooling degree days 0  
Year to date cooling degree days 189  
Moisture
Dew Point 34°F   
Average Humidity 77    
Maximum Humidity 93    
Minimum Humidity 58    
Precipitation
Precipitation 0.55 in 0.23 in 1.48 in (1973)
Month to date precipitation 2.27  
Year to date precipitation 27.84  
Snow
Snow 0.00 in in 1.40 in (1955)
Month to date snowfall  
Since 1 July snowfall  
Snow Depth in   
Wind
Wind Speed 4 mph   
Max Wind Speed 9 mph   
Max Gust Speed mph   
Visibility 8 miles   
Events Rain   

Key: T is trace of precipitation, MM is missing value
Source: NWS Daily Summary
Time(PST)TemperatureDew PointHumidity Pressure Visibility Wind DirectionWind SpeedGust SpeedPrecipitationEvents Conditions
12:53 AM 35.1°F 28.0°F 76% 30.24 in 10.0 miles ESE 4.6 mph - N/A   Clear
1:53 AM 33.1°F 28.0°F 82% 30.25 in 10.0 miles SSE 5.8 mph - N/A   Clear
2:53 AM 32.0°F 28.0°F 85% 30.24 in 10.0 miles SSE 5.8 mph - N/A   Partly Cloudy
3:53 AM 34.0°F 28.0°F 79% 30.23 in 10.0 miles SSE 4.6 mph - N/A   Mostly Cloudy
4:53 AM 33.1°F 28.0°F 82% 30.23 in 10.0 miles SE 4.6 mph - N/A   Partly Cloudy
5:53 AM 35.1°F 28.0°F 76% 30.22 in 10.0 miles SSE 3.5 mph - N/A   Mostly Cloudy
6:53 AM 35.6°F 28.4°F 75% 30.22 in 10.0 miles SE 3.5 mph - N/A   Overcast
7:53 AM 37.4°F 28.4°F 70% 30.23 in 10.0 miles Calm Calm - N/A   Overcast
8:53 AM 37.9°F 28.9°F 70% 30.23 in 10.0 miles Calm Calm - N/A   Overcast
9:53 AM 39.2°F 30.2°F 70% 30.23 in 10.0 miles SE 3.5 mph - N/A   Overcast
10:53 AM 41.0°F 32.0°F 70% 30.23 in 10.0 miles Calm Calm - N/A   Overcast
11:53 AM 44.1°F 33.1°F 65% 30.21 in 10.0 miles Calm Calm - N/A   Overcast
12:53 PM 46.9°F 33.1°F 59% 30.20 in 10.0 miles SSE 3.5 mph - N/A   Overcast
1:53 PM 48.0°F 34.0°F 58% 30.17 in 10.0 miles SSE 5.8 mph - 0.00 in   Overcast
2:53 PM 48.0°F 36.0°F 63% 30.16 in 10.0 miles SSE 5.8 mph - 0.00 in   Overcast
3:53 PM 46.9°F 39.0°F 74% 30.15 in 6.0 miles ESE 4.6 mph - 0.02 in Rain Light Rain
4:00 PM 46.4°F 39.2°F 76% 30.15 in 6.0 miles ESE 5.8 mph - 0.01 in Rain Light Rain
4:53 PM 45.0°F 41.0°F 86% 30.14 in 5.0 miles ESE 3.5 mph - 0.07 in Rain Light Rain
5:53 PM 45.0°F 41.0°F 86% 30.12 in 7.0 miles SE 9.2 mph - 0.12 in Rain Light Rain
6:53 PM 44.1°F 39.9°F 85% 30.10 in 7.0 miles SE 6.9 mph - 0.08 in Rain Light Rain
7:53 PM 44.1°F 41.0°F 89% 30.09 in 7.0 miles SE 3.5 mph - 0.08 in Rain Light Rain
8:53 PM 44.1°F 42.1°F 93% 30.11 in 7.0 miles Calm Calm - 0.03 in Rain Light Rain
9:53 PM 44.1°F 41.0°F 89% 30.10 in 5.0 miles ESE 3.5 mph - 0.03 in Rain Light Rain
10:53 PM 44.1°F 41.0°F 89% 30.08 in 5.0 miles SE 3.5 mph - 0.09 in Rain Rain
11:53 PM 44.1°F 41.0°F 89% 30.10 in 4.0 miles ESE 4.6 mph - 0.03 in Rain Light Rain
Moon Phase
Nov. 11 Nov. 13 Nov. 20 Nov. 28 Dec. 06
Sunrise:07:09 AM (PST) Moon Rise:04:21 AM (PST)11/11
Sunset:04:36 PM (PST) Moon Set:03:10 PM (PST)11/11

Copyright © 2014 The Weather Underground, Inc.